Time,TemperatureF,DewpointF,PressureIn,WindDirection,WindDirectionDegrees,WindSpeedMPH,WindSpeedGustMPH,Humidity,HourlyPrecipIn,Conditions,Clouds,dailyrainin,SoftwareType,DateUTC
2013-06-19 00:00:00,76.1,66.0,-100.00,NE,45,0.0,0.0,71,0.00,,,0.00,meteohub,2013-06-19 05:00:00,
2013-06-19 00:04:00,75.9,66.2,-100.00,NE,45,0.0,0.0,72,0.00,,,0.00,meteohub,2013-06-19 05:04:00,
2013-06-19 00:06:00,75.9,66.2,-100.00,NE,45,0.0,0.0,72,0.00,,,0.00,meteohub,2013-06-19 05:06:00,
2013-06-19 00:09:00,75.9,66.2,-100.00,NE,45,0.0,0.0,72,0.00,,,0.00,meteohub,2013-06-19 05:09:00,
2013-06-19 00:11:00,75.7,66.0,-100.00,NE,45,0.0,0.0,72,0.00,,,0.00,meteohub,2013-06-19 05:11:00,
2013-06-19 00:15:00,75.7,66.0,-100.00,NE,45,0.0,0.0,72,0.00,,,0.00,meteohub,2013-06-19 05:15:00,
2013-06-19 00:17:00,75.6,65.8,-100.00,NE,45,0.0,0.0,72,0.00,,,0.00,meteohub,2013-06-19 05:17:00,
2013-06-19 00:21:00,75.6,65.8,-100.00,NE,45,0.0,0.0,72,0.00,,,0.00,meteohub,2013-06-19 05:21:00,
2013-06-19 00:23:00,75.6,65.8,-100.00,NE,45,0.0,0.0,72,0.00,,,0.00,meteohub,2013-06-19 05:23:00,
2013-06-19 00:25:00,75.4,66.2,-100.00,NE,45,0.0,0.0,73,0.00,,,0.00,meteohub,2013-06-19 05:25:00,
2013-06-19 00:27:00,75.4,66.2,-100.00,NE,45,0.0,0.0,73,0.00,,,0.00,meteohub,2013-06-19 05:27:00,
2013-06-19 00:29:00,75.4,66.2,-100.00,NE,45,0.0,0.0,73,0.00,,,0.00,meteohub,2013-06-19 05:29:00,
2013-06-19 00:32:00,75.0,66.2,-100.00,NE,45,0.0,0.0,74,0.00,,,0.00,meteohub,2013-06-19 05:32:00,
2013-06-19 00:33:00,75.0,66.2,-100.00,NE,45,0.0,0.0,74,0.00,,,0.00,meteohub,2013-06-19 05:33:00,
2013-06-19 00:37:00,75.0,66.2,-100.00,NE,45,0.0,0.0,74,0.00,,,0.00,meteohub,2013-06-19 05:37:00,
2013-06-19 00:39:00,75.0,66.2,-100.00,NE,45,0.0,0.0,74,0.00,,,0.00,meteohub,2013-06-19 05:39:00,
2013-06-19 00:43:00,74.8,66.4,-100.00,NE,45,0.0,0.0,75,0.00,,,0.00,meteohub,2013-06-19 05:43:00,
2013-06-19 00:45:00,74.8,66.4,-100.00,NE,45,0.0,0.0,75,0.00,,,0.00,meteohub,2013-06-19 05:45:00,
2013-06-19 00:47:00,74.8,66.4,-100.00,NE,45,0.0,0.0,75,0.00,,,0.00,meteohub,2013-06-19 05:47:00,
2013-06-19 00:49:00,74.8,66.4,-100.00,NE,45,0.0,0.0,75,0.00,,,0.00,meteohub,2013-06-19 05:49:00,
2013-06-19 00:51:00,74.7,66.2,-100.00,NE,45,0.0,0.0,75,0.00,,,0.00,meteohub,2013-06-19 05:51:00,
2013-06-19 00:53:00,74.5,66.0,-100.00,NE,45,0.0,0.0,75,0.00,,,0.00,meteohub,2013-06-19 05:53:00,
2013-06-19 00:57:00,74.5,66.0,-100.00,NE,45,0.0,0.0,75,0.00,,,0.00,meteohub,2013-06-19 05:57:00,
2013-06-19 00:59:00,74.5,66.0,-100.00,NE,45,0.0,0.0,75,0.00,,,0.00,meteohub,2013-06-19 05:59:00,
2013-06-19 01:01:00,74.5,66.4,-100.00,NE,45,0.0,0.0,76,0.00,,,0.00,meteohub,2013-06-19 06:01:00,
2013-06-19 01:03:00,74.5,66.4,-100.00,NE,45,0.0,0.0,76,0.00,,,0.00,meteohub,2013-06-19 06:03:00,
2013-06-19 01:07:00,74.3,66.2,-100.00,NE,45,0.0,0.0,76,0.00,,,0.00,meteohub,2013-06-19 06:07:00,
2013-06-19 01:11:00,74.3,66.2,-100.00,NE,45,0.0,0.0,76,0.00,,,0.00,meteohub,2013-06-19 06:11:00,
2013-06-19 01:13:00,74.3,66.6,-100.00,NE,45,0.0,0.0,77,0.00,,,0.00,meteohub,2013-06-19 06:13:00,
2013-06-19 01:17:00,74.1,66.4,-100.00,NE,45,0.0,0.0,77,0.00,,,0.00,meteohub,2013-06-19 06:17:00,
2013-06-19 01:19:00,74.1,66.4,-100.00,WNW,293,1.0,0.0,77,0.00,,,0.00,meteohub,2013-06-19 06:19:00,
2013-06-19 01:21:00,74.1,66.4,-100.00,WNW,293,0.0,0.0,77,0.00,,,0.00,meteohub,2013-06-19 06:21:00,
2013-06-19 01:27:00,73.9,66.2,-100.00,NW,315,0.0,1.0,77,0.00,,,0.00,meteohub,2013-06-19 06:27:00,
2013-06-19 01:29:00,73.9,66.2,-100.00,NW,315,0.0,1.0,77,0.00,,,0.00,meteohub,2013-06-19 06:29:00,
2013-06-19 01:33:00,73.8,66.4,-100.00,NW,315,0.0,1.0,78,0.00,,,0.00,meteohub,2013-06-19 06:33:00,
2013-06-19 01:35:00,73.8,66.4,-100.00,NW,315,0.0,1.0,78,0.00,,,0.00,meteohub,2013-06-19 06:35:00,
2013-06-19 01:41:00,73.8,66.4,-100.00,NW,315,0.0,0.0,78,0.00,,,0.00,meteohub,2013-06-19 06:41:00,
2013-06-19 01:43:00,73.8,66.0,-100.00,NW,315,0.0,0.0,77,0.00,,,0.00,meteohub,2013-06-19 06:43:00,
2013-06-19 01:45:00,73.8,66.0,-100.00,NW,315,0.0,0.0,77,0.00,,,0.00,meteohub,2013-06-19 06:45:00,
2013-06-19 01:47:00,73.8,66.4,-100.00,NW,315,0.0,0.0,78,0.00,,,0.00,meteohub,2013-06-19 06:47:00,
2013-06-19 01:49:00,73.8,66.4,-100.00,NW,315,0.0,0.0,78,0.00,,,0.00,meteohub,2013-06-19 06:49:00,
2013-06-19 01:53:00,73.8,66.0,-100.00,NNW,338,0.0,0.0,77,0.00,,,0.00,meteohub,2013-06-19 06:53:00,
2013-06-19 01:55:00,73.6,66.4,-100.00,NNW,338,0.0,0.0,78,0.00,,,0.00,meteohub,2013-06-19 06:55:00,
2013-06-19 02:01:00,73.6,66.4,-100.00,NNW,338,0.0,0.0,78,0.00,,,0.00,meteohub,2013-06-19 07:01:00,
2013-06-19 02:02:00,73.6,66.4,-100.00,NNW,338,0.0,0.0,78,0.00,,,0.00,meteohub,2013-06-19 07:02:00,
2013-06-19 02:03:00,73.6,66.4,-100.00,NNW,338,0.0,0.0,78,0.00,,,0.00,meteohub,2013-06-19 07:03:00,
2013-06-19 02:11:00,73.6,66.4,-100.00,NNW,338,0.0,0.0,78,0.00,,,0.00,meteohub,2013-06-19 07:11:00,
2013-06-19 02:17:00,73.6,66.4,-100.00,SE,135,0.0,0.0,78,0.00,,,0.00,meteohub,2013-06-19 07:17:00,
2013-06-19 02:23:00,73.6,66.4,-100.00,SE,135,0.0,0.0,78,0.00,,,0.00,meteohub,2013-06-19 07:23:00,
2013-06-19 02:25:00,73.6,66.4,-100.00,SE,135,0.0,0.0,78,0.00,,,0.00,meteohub,2013-06-19 07:25:00,
2013-06-19 02:27:00,73.4,66.2,-100.00,SE,135,0.0,0.0,78,0.00,,,0.00,meteohub,2013-06-19 07:27:00,
2013-06-19 02:31:00,73.4,66.2,-100.00,SE,135,0.0,0.0,78,0.00,,,0.00,meteohub,2013-06-19 07:31:00,
2013-06-19 02:32:00,73.4,66.2,-100.00,SE,135,0.0,0.0,78,0.00,,,0.00,meteohub,2013-06-19 07:32:00,
2013-06-19 02:33:00,73.4,66.2,-100.00,SE,135,0.0,0.0,78,0.00,,,0.00,meteohub,2013-06-19 07:33:00,
2013-06-19 02:35:00,73.4,66.2,-100.00,SE,135,0.0,0.0,78,0.00,,,0.00,meteohub,2013-06-19 07:35:00,
2013-06-19 02:37:00,73.4,66.2,-100.00,SE,135,0.0,0.0,78,0.00,,,0.00,meteohub,2013-06-19 07:37:00,
2013-06-19 02:39:00,73.4,66.2,-100.00,SE,135,0.0,0.0,78,0.00,,,0.00,meteohub,2013-06-19 07:39:00,
2013-06-19 02:41:00,73.2,66.0,-100.00,SE,135,0.0,0.0,78,0.00,,,0.00,meteohub,2013-06-19 07:41:00,
2013-06-19 02:43:00,73.2,66.0,-100.00,SE,135,0.0,0.0,78,0.00,,,0.00,meteohub,2013-06-19 07:43:00,
2013-06-19 02:47:00,73.2,66.0,-100.00,East,90,0.0,0.0,78,0.00,,,0.00,meteohub,2013-06-19 07:47:00,
2013-06-19 02:49:00,73.2,66.0,-100.00,East,90,0.0,0.0,78,0.00,,,0.00,meteohub,2013-06-19 07:49:00,
2013-06-19 02:51:00,73.2,66.0,-100.00,East,90,0.0,0.0,78,0.00,,,0.00,meteohub,2013-06-19 07:51:00,
2013-06-19 02:55:00,73.2,66.4,-100.00,East,90,0.0,0.0,79,0.00,,,0.00,meteohub,2013-06-19 07:55:00,
2013-06-19 02:57:00,73.2,66.4,-100.00,East,90,0.0,0.0,79,0.00,,,0.00,meteohub,2013-06-19 07:57:00,
2013-06-19 02:59:00,73.0,66.2,-100.00,East,90,0.0,0.0,79,0.00,,,0.00,meteohub,2013-06-19 07:59:00,
2013-06-19 03:02:00,73.0,66.2,-100.00,East,90,0.0,0.0,79,0.00,,,0.00,meteohub,2013-06-19 08:02:00,
2013-06-19 03:03:00,73.0,66.2,-100.00,East,90,0.0,0.0,79,0.00,,,0.00,meteohub,2013-06-19 08:03:00,
2013-06-19 03:05:00,73.0,66.2,-100.00,East,90,0.0,0.0,79,0.00,,,0.00,meteohub,2013-06-19 08:05:00,
2013-06-19 03:10:00,73.0,66.2,-100.00,East,90,0.0,0.0,79,0.00,,,0.00,meteohub,2013-06-19 08:10:00,
2013-06-19 03:12:00,73.0,66.6,-100.00,East,90,0.0,0.0,80,0.00,,,0.00,meteohub,2013-06-19 08:12:00,
2013-06-19 03:16:00,73.0,66.6,-100.00,East,90,0.0,0.0,80,0.00,,,0.00,meteohub,2013-06-19 08:16:00,
2013-06-19 03:17:00,73.0,66.6,-100.00,East,90,0.0,0.0,80,0.00,,,0.00,meteohub,2013-06-19 08:17:00,
2013-06-19 03:18:00,73.0,66.6,-100.00,East,90,0.0,0.0,80,0.00,,,0.00,meteohub,2013-06-19 08:18:00,
2013-06-19 03:22:00,72.9,66.4,-100.00,East,90,0.0,0.0,80,0.00,,,0.00,meteohub,2013-06-19 08:22:00,
2013-06-19 03:24:00,72.9,66.4,-100.00,East,90,0.0,0.0,80,0.00,,,0.00,meteohub,2013-06-19 08:24:00,
2013-06-19 03:26:00,72.9,66.4,-100.00,East,90,0.0,0.0,80,0.00,,,0.00,meteohub,2013-06-19 08:26:00,
2013-06-19 03:28:00,72.9,66.4,-100.00,East,90,0.0,0.0,80,0.00,,,0.00,meteohub,2013-06-19 08:28:00,
2013-06-19 03:32:00,72.7,66.2,-100.00,East,90,0.0,0.0,80,0.00,,,0.00,meteohub,2013-06-19 08:32:00,
2013-06-19 03:36:00,72.7,66.6,-100.00,East,90,0.0,0.0,81,0.00,,,0.00,meteohub,2013-06-19 08:36:00,
2013-06-19 03:38:00,72.7,66.6,-100.00,East,90,0.0,0.0,81,0.00,,,0.00,meteohub,2013-06-19 08:38:00,
2013-06-19 03:40:00,72.7,66.6,-100.00,East,90,0.0,0.0,81,0.00,,,0.00,meteohub,2013-06-19 08:40:00,
2013-06-19 03:44:00,72.7,66.6,-100.00,East,90,0.0,0.0,81,0.00,,,0.00,meteohub,2013-06-19 08:44:00,
2013-06-19 03:47:00,72.7,66.6,-100.00,East,90,0.0,0.0,81,0.00,,,0.00,meteohub,2013-06-19 08:47:00,
2013-06-19 03:48:00,72.7,66.6,-100.00,East,90,0.0,0.0,81,0.00,,,0.00,meteohub,2013-06-19 08:48:00,
2013-06-19 03:52:00,72.7,66.9,-100.00,East,90,0.0,0.0,82,0.00,,,0.00,meteohub,2013-06-19 08:52:00,
2013-06-19 03:54:00,72.7,66.9,-100.00,East,90,0.0,0.0,82,0.00,,,0.00,meteohub,2013-06-19 08:54:00,
2013-06-19 03:56:00,72.7,66.9,-100.00,East,90,0.0,0.0,82,0.00,,,0.00,meteohub,2013-06-19 08:56:00,
2013-06-19 04:00:00,72.7,66.9,-100.00,East,90,0.0,0.0,82,0.00,,,0.00,meteohub,2013-06-19 09:00:00,
2013-06-19 04:02:00,72.7,66.9,-100.00,East,90,0.0,0.0,82,0.00,,,0.00,meteohub,2013-06-19 09:02:00,
2013-06-19 04:04:00,72.7,66.9,-100.00,East,90,0.0,0.0,82,0.00,,,0.00,meteohub,2013-06-19 09:04:00,
2013-06-19 04:12:00,72.7,67.3,-100.00,ESE,113,0.0,0.0,83,0.00,,,0.00,meteohub,2013-06-19 09:12:00,
2013-06-19 04:14:00,72.7,67.3,-100.00,ESE,113,0.0,0.0,83,0.00,,,0.00,meteohub,2013-06-19 09:14:00,
2013-06-19 04:16:00,72.7,67.3,-100.00,ESE,113,0.0,0.0,83,0.00,,,0.00,meteohub,2013-06-19 09:16:00,
2013-06-19 04:17:00,72.7,67.3,-100.00,ESE,113,0.0,0.0,83,0.00,,,0.00,meteohub,2013-06-19 09:17:00,
2013-06-19 04:18:00,72.7,67.3,-100.00,ESE,113,0.0,0.0,83,0.00,,,0.00,meteohub,2013-06-19 09:18:00,
2013-06-19 04:22:00,72.7,67.6,-100.00,ESE,113,0.0,0.0,84,0.00,,,0.00,meteohub,2013-06-19 09:22:00,
2013-06-19 04:24:00,72.7,67.6,-100.00,ESE,113,0.0,0.0,84,0.00,,,0.00,meteohub,2013-06-19 09:24:00,
2013-06-19 04:26:00,72.7,67.6,-100.00,ESE,113,0.0,0.0,84,0.00,,,0.00,meteohub,2013-06-19 09:26:00,
2013-06-19 04:28:00,72.7,67.6,-100.00,ESE,113,0.0,0.0,84,0.00,,,0.00,meteohub,2013-06-19 09:28:00,
2013-06-19 04:30:00,72.7,67.6,-100.00,ESE,113,0.0,0.0,84,0.00,,,0.00,meteohub,2013-06-19 09:30:00,
2013-06-19 04:32:00,72.7,67.6,-100.00,ESE,113,0.0,0.0,84,0.00,,,0.00,meteohub,2013-06-19 09:32:00,
2013-06-19 04:34:00,72.7,67.6,-100.00,ESE,113,0.0,0.0,84,0.00,,,0.00,meteohub,2013-06-19 09:34:00,
2013-06-19 04:38:00,72.7,67.6,-100.00,ESE,113,0.0,0.0,84,0.00,,,0.00,meteohub,2013-06-19 09:38:00,
2013-06-19 04:40:00,72.7,67.6,-100.00,ESE,113,0.0,0.0,84,0.00,,,0.00,meteohub,2013-06-19 09:40:00,
2013-06-19 04:44:00,72.7,67.6,-100.00,East,90,0.0,0.0,84,0.00,,,0.00,meteohub,2013-06-19 09:44:00,
2013-06-19 04:46:00,72.7,67.6,-100.00,East,90,0.0,0.0,84,0.00,,,0.00,meteohub,2013-06-19 09:46:00,
2013-06-19 04:47:00,72.7,67.6,-100.00,East,90,0.0,0.0,84,0.00,,,0.00,meteohub,2013-06-19 09:47:00,
2013-06-19 04:50:00,72.7,67.6,-100.00,ESE,113,0.0,0.0,84,0.00,,,0.00,meteohub,2013-06-19 09:50:00,
2013-06-19 04:52:00,72.7,67.6,-100.00,ESE,113,0.0,0.0,84,0.00,,,0.00,meteohub,2013-06-19 09:52:00,
2013-06-19 04:54:00,72.5,67.5,-100.00,ESE,113,0.0,0.0,84,0.00,,,0.00,meteohub,2013-06-19 09:54:00,
2013-06-19 04:58:00,72.7,67.8,-100.00,ESE,113,0.0,0.0,85,0.00,,,0.00,meteohub,2013-06-19 09:58:00,
2013-06-19 05:02:00,72.5,67.8,-100.00,ESE,113,0.0,0.0,85,0.00,,,0.00,meteohub,2013-06-19 10:02:00,
2013-06-19 05:04:00,72.5,67.8,-100.00,ESE,113,0.0,0.0,85,0.00,,,0.00,meteohub,2013-06-19 10:04:00,
2013-06-19 05:08:00,72.5,67.8,-100.00,ESE,113,0.0,0.0,85,0.00,,,0.00,meteohub,2013-06-19 10:08:00,
2013-06-19 05:10:00,72.5,67.8,-100.00,ESE,113,0.0,0.0,85,0.00,,,0.00,meteohub,2013-06-19 10:10:00,
2013-06-19 05:12:00,72.5,67.8,-100.00,ESE,113,0.0,0.0,85,0.00,,,0.00,meteohub,2013-06-19 10:12:00,
2013-06-19 05:16:00,72.5,67.8,-100.00,ESE,113,0.0,0.0,85,0.00,,,0.00,meteohub,2013-06-19 10:16:00,
2013-06-19 05:18:00,72.5,67.8,-100.00,ESE,113,0.0,0.0,85,0.00,,,0.00,meteohub,2013-06-19 10:18:00,
2013-06-19 05:20:00,72.5,67.8,-100.00,ESE,113,0.0,0.0,85,0.00,,,0.00,meteohub,2013-06-19 10:20:00,
2013-06-19 05:22:00,72.3,67.6,-100.00,ESE,113,0.0,0.0,85,0.00,,,0.00,meteohub,2013-06-19 10:22:00,
2013-06-19 05:26:00,72.5,67.8,-100.00,ESE,113,0.0,0.0,85,0.00,,,0.00,meteohub,2013-06-19 10:26:00,
2013-06-19 05:28:00,72.3,67.6,-100.00,ESE,113,0.0,0.0,85,0.00,,,0.00,meteohub,2013-06-19 10:28:00,
2013-06-19 05:30:00,72.3,67.6,-100.00,ESE,113,0.0,0.0,85,0.00,,,0.00,meteohub,2013-06-19 10:30:00,
2013-06-19 05:32:00,72.3,67.6,-100.00,ESE,113,0.0,0.0,85,0.00,,,0.00,meteohub,2013-06-19 10:32:00,
2013-06-19 05:36:00,72.3,67.6,-100.00,ESE,113,0.0,0.0,85,0.00,,,0.00,meteohub,2013-06-19 10:36:00,
2013-06-19 05:38:00,72.3,67.6,-100.00,ESE,113,0.0,0.0,85,0.00,,,0.00,meteohub,2013-06-19 10:38:00,
2013-06-19 05:42:00,72.3,67.8,-100.00,ESE,113,0.0,0.0,86,0.00,,,0.00,meteohub,2013-06-19 10:42:00,
2013-06-19 05:44:00,72.3,67.8,-100.00,ESE,113,0.0,0.0,86,0.00,,,0.00,meteohub,2013-06-19 10:44:00,
2013-06-19 05:46:00,72.3,67.8,-100.00,ESE,113,0.0,0.0,86,0.00,,,0.00,meteohub,2013-06-19 10:46:00,
2013-06-19 05:47:00,72.3,67.8,-100.00,ESE,113,0.0,0.0,86,0.00,,,0.00,meteohub,2013-06-19 10:47:00,
2013-06-19 05:48:00,72.3,67.8,-100.00,ESE,113,0.0,0.0,86,0.00,,,0.00,meteohub,2013-06-19 10:48:00,
2013-06-19 05:52:00,72.3,67.8,-100.00,ENE,68,0.0,0.0,86,0.00,,,0.00,meteohub,2013-06-19 10:52:00,
2013-06-19 05:54:00,72.3,67.8,-100.00,ENE,68,0.0,0.0,86,0.00,,,0.00,meteohub,2013-06-19 10:54:00,
2013-06-19 05:58:00,72.3,67.8,-100.00,South,180,0.0,0.0,86,0.00,,,0.00,meteohub,2013-06-19 10:58:00,
2013-06-19 06:00:00,72.3,67.8,-100.00,South,180,0.0,0.0,86,0.00,,,0.00,meteohub,2013-06-19 11:00:00,
2013-06-19 06:02:00,72.3,67.8,-100.00,South,180,0.0,0.0,86,0.00,,,0.00,meteohub,2013-06-19 11:02:00,
2013-06-19 06:06:00,72.3,67.8,-100.00,SSW,203,0.0,0.0,86,0.00,,,0.00,meteohub,2013-06-19 11:06:00,
2013-06-19 06:08:00,72.3,67.8,-100.00,SSW,203,0.0,0.0,86,0.00,,,0.00,meteohub,2013-06-19 11:08:00,
2013-06-19 06:13:00,72.3,67.8,-100.00,SSW,203,0.0,0.0,86,0.00,,,0.00,meteohub,2013-06-19 11:13:00,
2013-06-19 06:17:00,72.1,67.6,-100.00,SSW,203,0.0,0.0,86,0.00,,,0.00,meteohub,2013-06-19 11:17:00,
2013-06-19 06:21:00,72.3,67.8,-100.00,SSW,203,0.0,0.0,86,0.00,,,0.00,meteohub,2013-06-19 11:21:00,
2013-06-19 06:23:00,72.3,67.8,-100.00,SSW,203,0.0,0.0,86,0.00,,,0.00,meteohub,2013-06-19 11:23:00,
2013-06-19 06:25:00,72.3,67.8,-100.00,SSW,203,0.0,0.0,86,0.00,,,0.00,meteohub,2013-06-19 11:25:00,
2013-06-19 06:27:00,72.3,67.8,-100.00,SSW,203,0.0,0.0,86,0.00,,,0.00,meteohub,2013-06-19 11:27:00,
2013-06-19 06:31:00,72.3,67.8,-100.00,SSE,158,0.0,0.0,86,0.00,,,0.00,meteohub,2013-06-19 11:31:00,
2013-06-19 06:33:00,72.3,67.8,-100.00,SSE,158,0.0,0.0,86,0.00,,,0.00,meteohub,2013-06-19 11:33:00,
2013-06-19 06:35:00,72.3,67.8,-100.00,SW,225,0.0,0.0,86,0.00,,,0.00,meteohub,2013-06-19 11:35:00,
2013-06-19 06:37:00,72.1,67.6,-100.00,South,180,0.0,0.0,86,0.00,,,0.00,meteohub,2013-06-19 11:37:00,
2013-06-19 06:39:00,72.3,67.8,-100.00,SSW,203,0.0,0.0,86,0.00,,,0.00,meteohub,2013-06-19 11:39:00,
2013-06-19 06:41:00,72.3,67.8,-100.00,South,180,0.0,0.0,86,0.00,,,0.00,meteohub,2013-06-19 11:41:00,
2013-06-19 06:43:00,72.1,67.6,-100.00,ESE,113,0.0,0.0,86,0.00,,,0.00,meteohub,2013-06-19 11:43:00,
2013-06-19 06:47:00,72.1,67.6,-100.00,South,180,0.0,0.0,86,0.00,,,0.00,meteohub,2013-06-19 11:47:00,
2013-06-19 06:49:00,72.3,67.8,-100.00,SSW,203,0.0,0.0,86,0.00,,,0.00,meteohub,2013-06-19 11:49:00,
2013-06-19 06:53:00,72.1,67.6,-100.00,SSW,203,0.0,0.0,86,0.00,,,0.00,meteohub,2013-06-19 11:53:00,
2013-06-19 06:55:00,72.1,67.6,-100.00,SSW,203,0.0,0.0,86,0.00,,,0.00,meteohub,2013-06-19 11:55:00,
2013-06-19 06:57:00,72.1,67.6,-100.00,SSW,203,0.0,0.0,86,0.00,,,0.00,meteohub,2013-06-19 11:57:00,
2013-06-19 07:01:00,72.1,67.6,-100.00,SW,225,0.0,0.0,86,0.00,,,0.00,meteohub,2013-06-19 12:01:00,
2013-06-19 07:05:00,72.1,67.6,-100.00,SW,225,0.0,0.0,86,0.00,,,0.00,meteohub,2013-06-19 12:05:00,
2013-06-19 07:07:00,72.1,67.6,-100.00,SW,225,0.0,0.0,86,0.00,,,0.00,meteohub,2013-06-19 12:07:00,
2013-06-19 07:09:00,72.1,67.6,-100.00,SW,225,0.0,0.0,86,0.00,,,0.00,meteohub,2013-06-19 12:09:00,
2013-06-19 07:11:00,72.1,67.6,-100.00,SW,225,0.0,0.0,86,0.00,,,0.00,meteohub,2013-06-19 12:11:00,
2013-06-19 07:13:00,72.1,67.6,-100.00,SW,225,0.0,0.0,86,0.00,,,0.00,meteohub,2013-06-19 12:13:00,
2013-06-19 07:15:00,72.3,67.8,-100.00,SW,225,0.0,0.0,86,0.00,,,0.00,meteohub,2013-06-19 12:15:00,
2013-06-19 07:17:00,72.3,67.8,-100.00,SSE,158,0.0,0.0,86,0.00,,,0.00,meteohub,2013-06-19 12:17:00,
2013-06-19 07:19:00,72.3,67.8,-100.00,SSE,158,0.0,0.0,86,0.00,,,0.00,meteohub,2013-06-19 12:19:00,
2013-06-19 07:21:00,72.3,67.8,-100.00,SSW,203,2.0,0.0,86,0.00,,,0.00,meteohub,2013-06-19 12:21:00,
2013-06-19 07:23:00,72.3,67.8,-100.00,SW,225,0.0,0.0,86,0.00,,,0.00,meteohub,2013-06-19 12:23:00,
2013-06-19 07:25:00,72.3,67.8,-100.00,SW,225,0.0,2.0,86,0.00,,,0.00,meteohub,2013-06-19 12:25:00,
2013-06-19 07:31:00,72.3,67.8,-100.00,SSW,203,0.0,2.0,86,0.00,,,0.00,meteohub,2013-06-19 12:31:00,
2013-06-19 07:32:00,72.3,67.8,-100.00,East,90,0.0,2.0,86,0.00,,,0.00,meteohub,2013-06-19 12:32:00,
2013-06-19 07:35:00,72.5,68.0,-100.00,SSW,203,4.0,4.0,86,0.00,,,0.00,meteohub,2013-06-19 12:35:00,
2013-06-19 07:37:00,72.5,68.0,-100.00,SSW,203,0.0,2.0,86,0.00,,,0.00,meteohub,2013-06-19 12:37:00,
2013-06-19 07:39:00,72.5,68.0,-100.00,SSW,203,1.0,2.0,86,0.00,,,0.00,meteohub,2013-06-19 12:39:00,
2013-06-19 07:45:00,72.7,68.2,-100.00,South,180,0.0,4.0,86,0.00,,,0.00,meteohub,2013-06-19 12:45:00,
2013-06-19 07:47:00,72.9,68.4,-100.00,East,90,2.0,4.0,86,0.00,,,0.00,meteohub,2013-06-19 12:47:00,
2013-06-19 07:49:00,72.9,68.4,-100.00,East,90,2.0,4.0,86,0.00,,,0.00,meteohub,2013-06-19 12:49:00,
2013-06-19 07:51:00,72.9,68.4,-100.00,NNW,338,1.0,4.0,86,0.00,,,0.00,meteohub,2013-06-19 12:51:00,
2013-06-19 07:55:00,73.0,68.5,-100.00,South,180,1.0,2.0,86,0.00,,,0.00,meteohub,2013-06-19 12:55:00,
2013-06-19 07:57:00,73.0,68.5,-100.00,ENE,68,0.0,2.0,86,0.00,,,0.00,meteohub,2013-06-19 12:57:00,
2013-06-19 07:59:00,73.2,68.7,-100.00,SW,225,2.0,2.0,86,0.00,,,0.00,meteohub,2013-06-19 12:59:00,
2013-06-19 08:01:00,73.2,68.7,-100.00,SE,135,0.0,2.0,86,0.00,,,0.00,meteohub,2013-06-19 13:01:00,
2013-06-19 08:02:00,73.2,68.7,-100.00,SE,135,0.0,2.0,86,0.00,,,0.00,meteohub,2013-06-19 13:02:00,
2013-06-19 08:03:00,73.2,68.7,-100.00,SSW,203,1.0,2.0,86,0.00,,,0.00,meteohub,2013-06-19 13:03:00,
2013-06-19 08:07:00,73.2,68.7,-100.00,ESE,113,0.0,2.0,86,0.00,,,0.00,meteohub,2013-06-19 13:07:00,
2013-06-19 08:11:00,73.4,68.9,-100.00,ESE,113,2.0,2.0,86,0.00,,,0.00,meteohub,2013-06-19 13:11:00,
2013-06-19 08:13:00,73.4,68.9,-100.00,ESE,113,2.0,2.0,86,0.00,,,0.00,meteohub,2013-06-19 13:13:00,
2013-06-19 08:15:00,73.6,68.7,-100.00,SSW,203,2.0,2.0,85,0.00,,,0.00,meteohub,2013-06-19 13:15:00,
2013-06-19 08:17:00,73.8,68.9,-100.00,South,180,0.0,2.0,85,0.00,,,0.00,meteohub,2013-06-19 13:17:00,
2013-06-19 08:19:00,73.9,69.1,-100.00,SW,225,2.0,2.0,85,0.00,,,0.00,meteohub,2013-06-19 13:19:00,
2013-06-19 08:23:00,73.9,69.1,-100.00,South,180,0.0,2.0,85,0.00,,,0.00,meteohub,2013-06-19 13:23:00,
2013-06-19 08:25:00,73.9,69.1,-100.00,South,180,0.0,2.0,85,0.00,,,0.00,meteohub,2013-06-19 13:25:00,
2013-06-19 08:27:00,74.1,69.3,-100.00,SW,225,4.0,4.0,85,0.00,,,0.00,meteohub,2013-06-19 13:27:00,
2013-06-19 08:29:00,74.3,69.4,-100.00,SW,225,0.0,2.0,85,0.00,,,0.00,meteohub,2013-06-19 13:29:00,
2013-06-19 08:31:00,74.3,69.4,-100.00,SSE,158,0.0,4.0,85,0.00,,,0.00,meteohub,2013-06-19 13:31:00,
2013-06-19 08:32:00,74.3,69.4,-100.00,SSE,158,0.0,4.0,85,0.00,,,0.00,meteohub,2013-06-19 13:32:00,
2013-06-19 08:35:00,74.5,69.3,-100.00,South,180,1.0,4.0,84,0.00,,,0.00,meteohub,2013-06-19 13:35:00,
2013-06-19 08:37:00,74.5,69.3,-100.00,ESE,113,0.0,4.0,84,0.00,,,0.00,meteohub,2013-06-19 13:37:00,
2013-06-19 08:39:00,74.7,69.1,-100.00,West,270,1.0,4.0,83,0.00,,,0.00,meteohub,2013-06-19 13:39:00,
2013-06-19 08:43:00,74.8,69.3,-100.00,SSE,158,0.0,4.0,83,0.00,,,0.00,meteohub,2013-06-19 13:43:00,
2013-06-19 08:45:00,74.8,69.3,-100.00,SSE,158,1.0,1.0,83,0.00,,,0.00,meteohub,2013-06-19 13:45:00,
2013-06-19 08:51:00,75.0,69.4,-100.00,SSW,203,0.0,1.0,83,0.00,,,0.00,meteohub,2013-06-19 13:51:00,
2013-06-19 08:57:00,75.6,69.6,-100.00,ESE,113,0.0,1.0,82,0.00,,,0.00,meteohub,2013-06-19 13:57:00,
2013-06-19 08:59:00,75.7,69.8,-100.00,SE,135,0.0,1.0,82,0.00,,,0.00,meteohub,2013-06-19 13:59:00,
2013-06-19 09:02:00,75.7,69.4,-100.00,SSW,203,2.0,2.0,81,0.00,,,0.00,meteohub,2013-06-19 14:02:00,
2013-06-19 09:04:00,75.7,69.4,-100.00,South,180,0.0,1.0,81,0.00,,,0.00,meteohub,2013-06-19 14:04:00,
2013-06-19 09:06:00,75.7,69.1,-100.00,South,180,0.0,2.0,80,0.00,,,0.00,meteohub,2013-06-19 14:06:00,
2013-06-19 09:12:00,75.9,68.9,-100.00,WSW,248,1.0,2.0,79,0.00,,,0.00,meteohub,2013-06-19 14:12:00,
2013-06-19 09:14:00,76.1,69.1,-100.00,SSE,158,1.0,2.0,79,0.00,,,0.00,meteohub,2013-06-19 14:14:00,
2013-06-19 09:16:00,76.3,69.3,-100.00,South,180,0.0,2.0,79,0.00,,,0.00,meteohub,2013-06-19 14:16:00,
2013-06-19 09:20:00,76.6,69.6,-100.00,ESE,113,0.0,2.0,79,0.00,,,0.00,meteohub,2013-06-19 14:20:00,
2013-06-19 09:24:00,76.8,69.4,-100.00,NE,45,2.0,2.0,78,0.00,,,0.00,meteohub,2013-06-19 14:24:00,
2013-06-19 09:26:00,76.8,69.1,-100.00,South,180,2.0,2.0,77,0.00,,,0.00,meteohub,2013-06-19 14:26:00,
2013-06-19 09:32:00,77.4,68.9,-100.00,South,180,2.0,3.0,75,0.00,,,0.00,meteohub,2013-06-19 14:32:00,
2013-06-19 09:34:00,77.4,68.9,-100.00,South,180,2.0,3.0,75,0.00,,,0.00,meteohub,2013-06-19 14:34:00,
2013-06-19 09:36:00,77.5,68.5,-100.00,South,180,2.0,4.0,74,0.00,,,0.00,meteohub,2013-06-19 14:36:00,
2013-06-19 09:40:00,77.9,68.9,-100.00,SSE,158,2.0,4.0,74,0.00,,,0.00,meteohub,2013-06-19 14:40:00,
2013-06-19 09:44:00,77.9,68.9,-100.00,South,180,2.0,4.0,74,0.00,,,0.00,meteohub,2013-06-19 14:44:00,
2013-06-19 09:46:00,78.1,69.1,-100.00,SSW,203,2.0,4.0,74,0.00,,,0.00,meteohub,2013-06-19 14:46:00,
2013-06-19 09:47:00,78.1,69.1,-100.00,SSE,158,1.0,4.0,74,0.00,,,0.00,meteohub,2013-06-19 14:47:00,
2013-06-19 09:50:00,78.1,69.1,-100.00,SSE,158,1.0,2.0,74,0.00,,,0.00,meteohub,2013-06-19 14:50:00,
2013-06-19 09:52:00,78.4,69.1,-100.00,SSE,158,2.0,2.0,73,0.00,,,0.00,meteohub,2013-06-19 14:52:00,
2013-06-19 09:56:00,78.6,69.3,-100.00,NNW,338,0.0,2.0,73,0.00,,,0.00,meteohub,2013-06-19 14:56:00,
2013-06-19 09:58:00,78.8,69.4,-100.00,SSW,203,1.0,2.0,73,0.00,,,0.00,meteohub,2013-06-19 14:58:00,
2013-06-19 10:00:00,79.0,69.6,-100.00,North,0,0.0,2.0,73,0.00,,,0.00,meteohub,2013-06-19 15:00:00,
2013-06-19 10:02:00,79.2,69.3,-100.00,WNW,293,0.0,2.0,72,0.00,,,0.00,meteohub,2013-06-19 15:02:00,
2013-06-19 10:04:00,79.3,69.4,-100.00,South,180,2.0,2.0,72,0.00,,,0.00,meteohub,2013-06-19 15:04:00,
2013-06-19 10:08:00,79.5,69.3,-100.00,SSE,158,0.0,2.0,71,0.00,,,0.00,meteohub,2013-06-19 15:08:00,
2013-06-19 10:10:00,79.7,69.4,-100.00,SW,225,3.0,3.0,71,0.00,,,0.00,meteohub,2013-06-19 15:10:00,
2013-06-19 10:14:00,80.2,69.1,-100.00,SSE,158,3.0,3.0,69,0.00,,,0.00,meteohub,2013-06-19 15:14:00,
2013-06-19 10:18:00,80.2,68.7,-100.00,SSE,158,4.0,4.0,68,0.00,,,0.00,meteohub,2013-06-19 15:18:00,
2013-06-19 10:20:00,80.2,68.4,-100.00,South,180,0.0,4.0,67,0.00,,,0.00,meteohub,2013-06-19 15:20:00,
2013-06-19 10:24:00,80.4,68.5,-100.00,NNW,338,0.0,4.0,67,0.00,,,0.00,meteohub,2013-06-19 15:24:00,
2013-06-19 10:26:00,80.6,68.5,-100.00,South,180,2.0,4.0,67,0.00,,,0.00,meteohub,2013-06-19 15:26:00,
2013-06-19 10:30:00,80.8,68.4,-100.00,WNW,293,0.0,4.0,66,0.00,,,0.00,meteohub,2013-06-19 15:30:00,
2013-06-19 10:32:00,81.0,68.5,-100.00,SW,225,2.0,4.0,66,0.00,,,0.00,meteohub,2013-06-19 15:32:00,
2013-06-19 10:36:00,81.1,68.2,-100.00,WSW,248,2.0,2.0,65,0.00,,,0.00,meteohub,2013-06-19 15:36:00,
2013-06-19 10:38:00,81.3,68.4,-100.00,SSW,203,2.0,2.0,65,0.00,,,0.00,meteohub,2013-06-19 15:38:00,
2013-06-19 10:40:00,81.5,68.5,-100.00,South,180,3.0,3.0,65,0.00,,,0.00,meteohub,2013-06-19 15:40:00,
2013-06-19 10:44:00,81.7,68.4,-100.00,SE,135,4.0,4.0,64,0.00,,,0.00,meteohub,2013-06-19 15:44:00,
2013-06-19 10:46:00,81.7,68.4,-100.00,SSE,158,2.0,4.0,64,0.00,,,0.00,meteohub,2013-06-19 15:46:00,
2013-06-19 10:47:00,81.7,68.4,-100.00,SSE,158,2.0,4.0,64,0.00,,,0.00,meteohub,2013-06-19 15:47:00,
2013-06-19 10:50:00,82.0,68.2,-100.00,SE,135,2.0,4.0,63,0.00,,,0.00,meteohub,2013-06-19 15:50:00,
2013-06-19 10:52:00,82.0,68.2,-100.00,SE,135,0.0,4.0,63,0.00,,,0.00,meteohub,2013-06-19 15:52:00,
2013-06-19 10:56:00,82.4,68.0,-100.00,West,270,4.0,4.0,62,0.00,,,0.00,meteohub,2013-06-19 15:56:00,
2013-06-19 10:58:00,82.4,67.6,-100.00,SSW,203,1.0,4.0,61,0.00,,,0.00,meteohub,2013-06-19 15:58:00,
2013-06-19 11:02:00,82.8,67.5,-100.00,WSW,248,2.0,4.0,60,0.00,,,0.00,meteohub,2013-06-19 16:02:00,
2013-06-19 11:08:00,83.1,66.7,-100.00,SSW,203,3.0,4.0,58,0.00,,,0.00,meteohub,2013-06-19 16:08:00,
2013-06-19 11:10:00,83.3,66.9,-100.00,SE,135,0.0,4.0,58,0.00,,,0.00,meteohub,2013-06-19 16:10:00,
2013-06-19 11:12:00,83.5,67.1,-100.00,ENE,68,3.0,4.0,58,0.00,,,0.00,meteohub,2013-06-19 16:12:00,
2013-06-19 11:14:00,83.7,67.3,-100.00,SSE,158,1.0,4.0,58,0.00,,,0.00,meteohub,2013-06-19 16:14:00,
2013-06-19 11:17:00,83.8,66.9,-100.00,ESE,113,0.0,3.0,57,0.00,,,0.00,meteohub,2013-06-19 16:17:00,
2013-06-19 11:22:00,84.2,66.7,-100.00,SE,135,1.0,3.0,56,0.00,,,0.00,meteohub,2013-06-19 16:22:00,
2013-06-19 11:24:00,84.4,66.9,-100.00,South,180,0.0,3.0,56,0.00,,,0.00,meteohub,2013-06-19 16:24:00,
2013-06-19 11:26:00,84.4,66.9,-100.00,South,180,0.0,3.0,56,0.00,,,0.00,meteohub,2013-06-19 16:26:00,
2013-06-19 11:30:00,84.6,66.6,-100.00,ESE,113,1.0,4.0,55,0.00,,,0.00,meteohub,2013-06-19 16:30:00,
2013-06-19 11:32:00,84.7,67.3,-100.00,WNW,293,0.0,4.0,56,0.00,,,0.00,meteohub,2013-06-19 16:32:00,
2013-06-19 11:34:00,84.7,66.7,-100.00,SSE,158,4.0,4.0,55,0.00,,,0.00,meteohub,2013-06-19 16:34:00,
2013-06-19 11:36:00,84.9,66.9,-100.00,East,90,0.0,4.0,55,0.00,,,0.00,meteohub,2013-06-19 16:36:00,
2013-06-19 11:38:00,84.9,66.9,-100.00,SSE,158,2.0,4.0,55,0.00,,,0.00,meteohub,2013-06-19 16:38:00,
2013-06-19 11:40:00,85.1,67.1,-100.00,SSE,158,2.0,4.0,55,0.00,,,0.00,meteohub,2013-06-19 16:40:00,
2013-06-19 11:44:00,85.5,66.9,-100.00,WSW,248,1.0,4.0,54,0.00,,,0.00,meteohub,2013-06-19 16:44:00,
2013-06-19 11:46:00,85.6,66.6,-100.00,South,180,6.0,6.0,53,0.00,,,0.00,meteohub,2013-06-19 16:46:00,
2013-06-19 11:48:00,85.6,66.6,-100.00,WSW,248,3.0,4.0,53,0.00,,,0.00,meteohub,2013-06-19 16:48:00,
2013-06-19 11:53:00,85.8,67.3,-100.00,WSW,248,3.0,6.0,54,0.00,,,0.00,meteohub,2013-06-19 16:53:00,
2013-06-19 11:55:00,85.8,66.7,-100.00,SSE,158,0.0,6.0,53,0.00,,,0.00,meteohub,2013-06-19 16:55:00,
2013-06-19 11:57:00,85.8,66.7,-100.00,SSE,158,0.0,6.0,53,0.00,,,0.00,meteohub,2013-06-19 16:57:00,
2013-06-19 11:59:00,86.2,67.1,-100.00,SSE,158,0.0,6.0,53,0.00,,,0.00,meteohub,2013-06-19 16:59:00,
2013-06-19 12:02:00,86.4,67.3,-100.00,SW,225,0.0,6.0,53,0.00,,,0.00,meteohub,2013-06-19 17:02:00,
2013-06-19 12:03:00,86.4,67.3,-100.00,SW,225,0.0,6.0,53,0.00,,,0.00,meteohub,2013-06-19 17:03:00,
2013-06-19 12:05:00,86.4,67.3,-100.00,SE,135,1.0,6.0,53,0.00,,,0.00,meteohub,2013-06-19 17:05:00,
2013-06-19 12:07:00,86.5,67.5,-100.00,South,180,0.0,3.0,53,0.00,,,0.00,meteohub,2013-06-19 17:07:00,
2013-06-19 12:09:00,86.7,67.5,-100.00,South,180,2.0,3.0,53,0.00,,,0.00,meteohub,2013-06-19 17:09:00,
2013-06-19 12:11:00,86.7,67.5,-100.00,South,180,2.0,2.0,53,0.00,,,0.00,meteohub,2013-06-19 17:11:00,
2013-06-19 12:13:00,86.9,67.1,-100.00,SSW,203,3.0,3.0,52,0.00,,,0.00,meteohub,2013-06-19 17:13:00,
2013-06-19 12:15:00,86.9,67.1,-100.00,SE,135,0.0,2.0,52,0.00,,,0.00,meteohub,2013-06-19 17:15:00,
2013-06-19 12:19:00,87.3,66.9,-100.00,ESE,113,0.0,3.0,51,0.00,,,0.00,meteohub,2013-06-19 17:19:00,
2013-06-19 12:21:00,87.4,66.6,-100.00,SE,135,4.0,4.0,50,0.00,,,0.00,meteohub,2013-06-19 17:21:00,
2013-06-19 12:23:00,87.4,65.8,-100.00,SE,135,1.0,3.0,49,0.00,,,0.00,meteohub,2013-06-19 17:23:00,
2013-06-19 12:29:00,87.6,66.0,-100.00,NNW,338,3.0,4.0,49,0.00,,,0.00,meteohub,2013-06-19 17:29:00,
2013-06-19 12:31:00,87.8,65.7,-100.00,South,180,2.0,4.0,48,0.00,,,0.00,meteohub,2013-06-19 17:31:00,
2013-06-19 12:32:00,88.0,65.8,-100.00,ESE,113,3.0,4.0,48,0.00,,,0.00,meteohub,2013-06-19 17:32:00,
2013-06-19 12:33:00,88.0,65.8,-100.00,ESE,113,3.0,4.0,48,0.00,,,0.00,meteohub,2013-06-19 17:33:00,
2013-06-19 12:35:00,88.0,65.8,-100.00,WSW,248,0.0,4.0,48,0.00,,,0.00,meteohub,2013-06-19 17:35:00,
2013-06-19 12:37:00,88.0,65.8,-100.00,South,180,1.0,4.0,48,0.00,,,0.00,meteohub,2013-06-19 17:37:00,
2013-06-19 12:43:00,88.5,66.4,-100.00,SW,225,2.0,3.0,48,0.00,,,0.00,meteohub,2013-06-19 17:43:00,
2013-06-19 12:45:00,88.7,66.6,-100.00,SSE,158,0.0,3.0,48,0.00,,,0.00,meteohub,2013-06-19 17:45:00,
2013-06-19 12:47:00,88.7,65.8,-100.00,ENE,68,0.0,3.0,47,0.00,,,0.00,meteohub,2013-06-19 17:47:00,
2013-06-19 12:49:00,88.7,65.8,-100.00,NE,45,1.0,3.0,47,0.00,,,0.00,meteohub,2013-06-19 17:49:00,
2013-06-19 12:53:00,88.9,66.6,-100.00,ESE,113,4.0,4.0,48,0.00,,,0.00,meteohub,2013-06-19 17:53:00,
2013-06-19 12:55:00,88.9,66.0,-100.00,ESE,113,1.0,3.0,47,0.00,,,0.00,meteohub,2013-06-19 17:55:00,
2013-06-19 12:59:00,89.2,66.9,-100.00,West,270,0.0,3.0,48,0.00,,,0.00,meteohub,2013-06-19 17:59:00,
2013-06-19 13:01:00,89.4,66.6,-100.00,SSW,203,1.0,4.0,47,0.00,,,0.00,meteohub,2013-06-19 18:01:00,
2013-06-19 13:02:00,89.6,67.3,-100.00,SE,135,0.0,4.0,48,0.00,,,0.00,meteohub,2013-06-19 18:02:00,
2013-06-19 13:05:00,89.8,66.9,-100.00,ESE,113,2.0,4.0,47,0.00,,,0.00,meteohub,2013-06-19 18:05:00,
2013-06-19 13:07:00,89.8,66.9,-100.00,ESE,113,2.0,4.0,47,0.00,,,0.00,meteohub,2013-06-19 18:07:00,
2013-06-19 13:09:00,89.8,66.9,-100.00,South,180,0.0,4.0,47,0.00,,,0.00,meteohub,2013-06-19 18:09:00,
2013-06-19 13:13:00,90.0,67.1,-100.00,SSW,203,2.0,2.0,47,0.00,,,0.00,meteohub,2013-06-19 18:13:00,
2013-06-19 13:15:00,90.1,66.6,-100.00,SSW,203,2.0,2.0,46,0.00,,,0.00,meteohub,2013-06-19 18:15:00,
2013-06-19 13:21:00,90.7,67.1,-100.00,SSE,158,2.0,2.0,46,0.00,,,0.00,meteohub,2013-06-19 18:21:00,
2013-06-19 13:23:00,90.7,67.1,-100.00,NNE,23,3.0,3.0,46,0.00,,,0.00,meteohub,2013-06-19 18:23:00,
2013-06-19 13:25:00,90.9,67.3,-100.00,WSW,248,0.0,3.0,46,0.00,,,0.00,meteohub,2013-06-19 18:25:00,
2013-06-19 13:27:00,91.0,67.5,-100.00,South,180,6.0,6.0,46,0.00,,,0.00,meteohub,2013-06-19 18:27:00,
2013-06-19 13:29:00,91.0,66.7,-100.00,South,180,6.0,6.0,45,0.00,,,0.00,meteohub,2013-06-19 18:29:00,
2013-06-19 13:33:00,91.2,66.9,-100.00,ESE,113,0.0,6.0,45,0.00,,,0.00,meteohub,2013-06-19 18:33:00,
2013-06-19 13:35:00,91.2,66.9,-100.00,West,270,0.0,6.0,45,0.00,,,0.00,meteohub,2013-06-19 18:35:00,
2013-06-19 13:37:00,91.2,66.9,-100.00,East,90,1.0,6.0,45,0.00,,,0.00,meteohub,2013-06-19 18:37:00,
2013-06-19 13:39:00,91.2,66.9,-100.00,East,90,1.0,6.0,45,0.00,,,0.00,meteohub,2013-06-19 18:39:00,
2013-06-19 13:41:00,91.2,66.9,-100.00,East,90,1.0,6.0,45,0.00,,,0.00,meteohub,2013-06-19 18:41:00,
2013-06-19 13:43:00,91.2,66.9,-100.00,East,90,1.0,6.0,45,0.00,,,0.00,meteohub,2013-06-19 18:43:00,
2013-06-19 13:47:00,91.6,67.3,-100.00,East,90,6.0,6.0,45,0.00,,,0.00,meteohub,2013-06-19 18:47:00,
2013-06-19 13:49:00,91.6,67.3,-100.00,East,90,3.0,6.0,45,0.00,,,0.00,meteohub,2013-06-19 18:49:00,
2013-06-19 13:51:00,91.6,66.6,-100.00,SSW,203,4.0,6.0,44,0.00,,,0.00,meteohub,2013-06-19 18:51:00,
2013-06-19 13:53:00,91.6,67.3,-100.00,ESE,113,3.0,6.0,45,0.00,,,0.00,meteohub,2013-06-19 18:53:00,
2013-06-19 13:55:00,91.6,66.6,-100.00,East,90,2.0,6.0,44,0.00,,,0.00,meteohub,2013-06-19 18:55:00,
2013-06-19 13:57:00,91.6,67.3,-100.00,SW,225,2.0,6.0,45,0.00,,,0.00,meteohub,2013-06-19 18:57:00,
2013-06-19 13:59:00,91.6,67.3,-100.00,ESE,113,1.0,6.0,45,0.00,,,0.00,meteohub,2013-06-19 18:59:00,
2013-06-19 14:03:00,91.8,66.7,-100.00,SSE,158,4.0,6.0,44,0.00,,,0.00,meteohub,2013-06-19 19:03:00,
2013-06-19 14:07:00,91.9,66.2,-100.00,SSE,158,4.0,4.0,43,0.00,,,0.00,meteohub,2013-06-19 19:07:00,
2013-06-19 14:11:00,91.9,66.2,-100.00,ENE,68,2.0,4.0,43,0.00,,,0.00,meteohub,2013-06-19 19:11:00,
2013-06-19 14:13:00,91.9,66.2,-100.00,ENE,68,2.0,4.0,43,0.00,,,0.00,meteohub,2013-06-19 19:13:00,
2013-06-19 14:15:00,92.1,66.4,-100.00,SSW,203,0.0,7.0,43,0.00,,,0.00,meteohub,2013-06-19 19:15:00,
2013-06-19 14:17:00,92.1,66.4,-100.00,South,180,3.0,7.0,43,0.00,,,0.00,meteohub,2013-06-19 19:17:00,
2013-06-19 14:19:00,92.3,66.6,-100.00,SSW,203,0.0,7.0,43,0.00,,,0.00,meteohub,2013-06-19 19:19:00,
2013-06-19 14:21:00,92.5,66.7,-100.00,NE,45,2.0,7.0,43,0.00,,,0.00,meteohub,2013-06-19 19:21:00,
2013-06-19 14:23:00,92.8,67.1,-100.00,NE,45,2.0,7.0,43,0.00,,,0.00,meteohub,2013-06-19 19:23:00,
2013-06-19 14:25:00,93.0,67.3,-100.00,NE,45,2.0,7.0,43,0.00,,,0.00,meteohub,2013-06-19 19:25:00,
2013-06-19 14:27:00,93.0,66.6,-100.00,SSW,203,2.0,7.0,42,0.00,,,0.00,meteohub,2013-06-19 19:27:00,
2013-06-19 14:29:00,92.8,66.4,-100.00,SE,135,0.0,7.0,42,0.00,,,0.00,meteohub,2013-06-19 19:29:00,
2013-06-19 14:31:00,93.0,67.3,-100.00,SW,225,1.0,3.0,43,0.00,,,0.00,meteohub,2013-06-19 19:31:00,
2013-06-19 14:35:00,93.0,67.8,-100.00,WNW,293,1.0,2.0,44,0.00,,,0.00,meteohub,2013-06-19 19:35:00,
2013-06-19 14:37:00,93.4,68.2,-100.00,South,180,2.0,2.0,44,0.00,,,0.00,meteohub,2013-06-19 19:37:00,
2013-06-19 14:43:00,93.9,68.0,-100.00,South,180,2.0,2.0,43,0.00,,,0.00,meteohub,2013-06-19 19:43:00,
2013-06-19 14:45:00,93.9,68.0,-100.00,South,180,2.0,2.0,43,0.00,,,0.00,meteohub,2013-06-19 19:45:00,
2013-06-19 14:50:00,94.1,68.2,-100.00,SSW,203,4.0,4.0,43,0.00,,,0.00,meteohub,2013-06-19 19:50:00,
2013-06-19 14:52:00,94.1,67.5,-100.00,SE,135,1.0,4.0,42,0.00,,,0.00,meteohub,2013-06-19 19:52:00,
2013-06-19 14:54:00,93.9,67.3,-100.00,NNW,338,0.0,4.0,42,0.00,,,0.00,meteohub,2013-06-19 19:54:00,
2013-06-19 14:56:00,93.9,67.3,-100.00,WNW,293,2.0,4.0,42,0.00,,,0.00,meteohub,2013-06-19 19:56:00,
2013-06-19 15:00:00,93.9,67.3,-100.00,North,0,0.0,4.0,42,0.00,,,0.00,meteohub,2013-06-19 20:00:00,
2013-06-19 15:02:00,93.7,67.1,-100.00,ENE,68,2.0,4.0,42,0.00,,,0.00,meteohub,2013-06-19 20:02:00,
2013-06-19 15:04:00,93.6,67.1,-100.00,NE,45,0.0,4.0,42,0.00,,,0.00,meteohub,2013-06-19 20:04:00,
2013-06-19 15:08:00,93.0,66.6,-100.00,SW,225,2.0,2.0,42,0.00,,,0.00,meteohub,2013-06-19 20:08:00,
2013-06-19 15:12:00,93.2,66.7,-100.00,WSW,248,5.0,10.0,42,0.00,,,0.00,meteohub,2013-06-19 20:12:00,
2013-06-19 15:16:00,93.4,66.9,-100.00,ESE,113,3.0,10.0,42,0.00,,,0.00,meteohub,2013-06-19 20:16:00,
2013-06-19 15:17:00,93.4,66.9,-100.00,ESE,113,3.0,10.0,42,0.00,,,0.00,meteohub,2013-06-19 20:17:00,
2013-06-19 15:18:00,93.4,66.2,-100.00,East,90,2.0,10.0,41,0.00,,,0.00,meteohub,2013-06-19 20:18:00,
2013-06-19 15:20:00,93.4,66.2,-100.00,East,90,2.0,10.0,41,0.00,,,0.00,meteohub,2013-06-19 20:20:00,
2013-06-19 15:22:00,93.4,66.9,-100.00,SSE,158,1.0,10.0,42,0.00,,,0.00,meteohub,2013-06-19 20:22:00,
2013-06-19 15:26:00,93.6,65.7,-100.00,ENE,68,1.0,5.0,40,0.00,,,0.00,meteohub,2013-06-19 20:26:00,
2013-06-19 15:28:00,93.4,65.5,-100.00,ESE,113,0.0,5.0,40,0.00,,,0.00,meteohub,2013-06-19 20:28:00,
2013-06-19 15:30:00,93.4,66.2,-100.00,South,180,4.0,5.0,41,0.00,,,0.00,meteohub,2013-06-19 20:30:00,
2013-06-19 15:32:00,93.6,66.4,-100.00,ESE,113,2.0,4.0,41,0.00,,,0.00,meteohub,2013-06-19 20:32:00,
2013-06-19 15:34:00,93.6,66.4,-100.00,South,180,3.0,4.0,41,0.00,,,0.00,meteohub,2013-06-19 20:34:00,
2013-06-19 15:36:00,93.6,66.4,-100.00,SSW,203,0.0,4.0,41,0.00,,,0.00,meteohub,2013-06-19 20:36:00,
2013-06-19 15:40:00,93.4,66.2,-100.00,ENE,68,1.0,4.0,41,0.00,,,0.00,meteohub,2013-06-19 20:40:00,
2013-06-19 15:42:00,93.4,66.2,-100.00,South,180,1.0,4.0,41,0.00,,,0.00,meteohub,2013-06-19 20:42:00,
2013-06-19 15:44:00,93.4,66.9,-100.00,South,180,6.0,6.0,42,0.00,,,0.00,meteohub,2013-06-19 20:44:00,
2013-06-19 15:46:00,93.4,66.2,-100.00,ESE,113,2.0,6.0,41,0.00,,,0.00,meteohub,2013-06-19 20:46:00,
2013-06-19 15:47:00,93.4,66.2,-100.00,ESE,113,2.0,6.0,41,0.00,,,0.00,meteohub,2013-06-19 20:47:00,
2013-06-19 15:50:00,93.7,67.1,-100.00,WSW,248,2.0,6.0,42,0.00,,,0.00,meteohub,2013-06-19 20:50:00,
2013-06-19 15:52:00,93.7,67.1,-100.00,WSW,248,2.0,6.0,42,0.00,,,0.00,meteohub,2013-06-19 20:52:00,
2013-06-19 15:54:00,93.7,67.1,-100.00,SSE,158,3.0,6.0,42,0.00,,,0.00,meteohub,2013-06-19 20:54:00,
2013-06-19 15:56:00,93.9,67.3,-100.00,SSE,158,2.0,6.0,42,0.00,,,0.00,meteohub,2013-06-19 20:56:00,
2013-06-19 16:00:00,93.7,67.1,-100.00,West,270,1.0,6.0,42,0.00,,,0.00,meteohub,2013-06-19 21:00:00,
2013-06-19 16:02:00,93.7,67.1,-100.00,West,270,1.0,6.0,42,0.00,,,0.00,meteohub,2013-06-19 21:02:00,
2013-06-19 16:04:00,93.9,68.0,-100.00,ESE,113,5.0,6.0,43,0.00,,,0.00,meteohub,2013-06-19 21:04:00,
2013-06-19 16:10:00,94.1,67.5,-100.00,ESE,113,2.0,5.0,42,0.00,,,0.00,meteohub,2013-06-19 21:10:00,
2013-06-19 16:12:00,93.9,66.6,-100.00,East,90,3.0,5.0,41,0.00,,,0.00,meteohub,2013-06-19 21:12:00,
2013-06-19 16:14:00,93.9,66.6,-100.00,South,180,2.0,5.0,41,0.00,,,0.00,meteohub,2013-06-19 21:14:00,
2013-06-19 16:17:00,93.9,66.6,-100.00,South,180,2.0,5.0,41,0.00,,,0.00,meteohub,2013-06-19 21:17:00,
2013-06-19 16:18:00,93.9,66.6,-100.00,ENE,68,0.0,5.0,41,0.00,,,0.00,meteohub,2013-06-19 21:18:00,
2013-06-19 16:20:00,93.9,66.6,-100.00,SE,135,3.0,3.0,41,0.00,,,0.00,meteohub,2013-06-19 21:20:00,
2013-06-19 16:22:00,93.9,66.6,-100.00,East,90,3.0,3.0,41,0.00,,,0.00,meteohub,2013-06-19 21:22:00,
2013-06-19 16:24:00,93.9,66.6,-100.00,East,90,3.0,3.0,41,0.00,,,0.00,meteohub,2013-06-19 21:24:00,
2013-06-19 16:26:00,93.9,65.8,-100.00,East,90,5.0,5.0,40,0.00,,,0.00,meteohub,2013-06-19 21:26:00,
2013-06-19 16:28:00,93.9,66.6,-100.00,SW,225,2.0,3.0,41,0.00,,,0.00,meteohub,2013-06-19 21:28:00,
2013-06-19 16:30:00,93.7,65.8,-100.00,SW,225,1.0,5.0,40,0.00,,,0.00,meteohub,2013-06-19 21:30:00,
2013-06-19 16:34:00,93.7,66.6,-100.00,ENE,68,5.0,5.0,41,0.00,,,0.00,meteohub,2013-06-19 21:34:00,
2013-06-19 16:36:00,93.7,66.6,-100.00,NE,45,0.0,5.0,41,0.00,,,0.00,meteohub,2013-06-19 21:36:00,
2013-06-19 16:40:00,93.4,66.2,-100.00,ESE,113,3.0,5.0,41,0.00,,,0.00,meteohub,2013-06-19 21:40:00,
2013-06-19 16:42:00,93.4,66.2,-100.00,ESE,113,3.0,5.0,41,0.00,,,0.00,meteohub,2013-06-19 21:42:00,
2013-06-19 16:44:00,93.2,66.0,-100.00,ESE,113,2.0,5.0,41,0.00,,,0.00,meteohub,2013-06-19 21:44:00,
2013-06-19 16:46:00,93.0,65.8,-100.00,SSW,203,3.0,5.0,41,0.00,,,0.00,meteohub,2013-06-19 21:46:00,
2013-06-19 16:47:00,93.0,65.8,-100.00,SSW,203,3.0,5.0,41,0.00,,,0.00,meteohub,2013-06-19 21:47:00,
2013-06-19 16:48:00,93.0,65.8,-100.00,SW,225,11.0,11.0,41,0.00,,,0.00,meteohub,2013-06-19 21:48:00,
2013-06-19 16:52:00,93.0,66.6,-100.00,SW,225,3.0,11.0,42,0.00,,,0.00,meteohub,2013-06-19 21:52:00,
2013-06-19 16:54:00,93.0,66.6,-100.00,SW,225,3.0,11.0,42,0.00,,,0.00,meteohub,2013-06-19 21:54:00,
2013-06-19 16:56:00,93.2,65.3,-100.00,East,90,4.0,11.0,40,0.00,,,0.00,meteohub,2013-06-19 21:56:00,
2013-06-19 16:58:00,93.2,65.3,-100.00,East,90,4.0,11.0,40,0.00,,,0.00,meteohub,2013-06-19 21:58:00,
2013-06-19 17:00:00,93.0,65.1,-100.00,SW,225,3.0,11.0,40,0.00,,,0.00,meteohub,2013-06-19 22:00:00,
2013-06-19 17:02:00,93.0,65.1,-100.00,SSW,203,4.0,11.0,40,0.00,,,0.00,meteohub,2013-06-19 22:02:00,
2013-06-19 17:06:00,93.0,65.8,-100.00,SE,135,2.0,6.0,41,0.00,,,0.00,meteohub,2013-06-19 22:06:00,
2013-06-19 17:10:00,92.8,65.7,-100.00,ENE,68,2.0,6.0,41,0.00,,,0.00,meteohub,2013-06-19 22:10:00,
2013-06-19 17:12:00,93.0,65.8,-100.00,East,90,4.0,6.0,41,0.00,,,0.00,meteohub,2013-06-19 22:12:00,
2013-06-19 17:14:00,93.0,65.8,-100.00,SSE,158,1.0,6.0,41,0.00,,,0.00,meteohub,2013-06-19 22:14:00,
2013-06-19 17:16:00,92.8,65.7,-100.00,East,90,3.0,4.0,41,0.00,,,0.00,meteohub,2013-06-19 22:16:00,
2013-06-19 17:18:00,92.8,64.9,-100.00,SW,225,4.0,4.0,40,0.00,,,0.00,meteohub,2013-06-19 22:18:00,
2013-06-19 17:20:00,92.8,64.9,-100.00,East,90,3.0,4.0,40,0.00,,,0.00,meteohub,2013-06-19 22:20:00,
2013-06-19 17:22:00,92.7,64.0,-100.00,ENE,68,0.0,4.0,39,0.00,,,0.00,meteohub,2013-06-19 22:22:00,
2013-06-19 17:28:00,92.5,64.6,-100.00,South,180,2.0,4.0,40,0.00,,,0.00,meteohub,2013-06-19 22:28:00,
2013-06-19 17:34:00,92.3,64.4,-100.00,South,180,0.0,7.0,40,0.00,,,0.00,meteohub,2013-06-19 22:34:00,
2013-06-19 17:36:00,92.3,64.4,-100.00,South,180,1.0,7.0,40,0.00,,,0.00,meteohub,2013-06-19 22:36:00,
2013-06-19 17:38:00,92.1,64.4,-100.00,SW,225,0.0,7.0,40,0.00,,,0.00,meteohub,2013-06-19 22:38:00,
2013-06-19 17:42:00,92.1,64.4,-100.00,South,180,1.0,7.0,40,0.00,,,0.00,meteohub,2013-06-19 22:42:00,
2013-06-19 17:44:00,92.1,64.9,-100.00,SSW,203,3.0,7.0,41,0.00,,,0.00,meteohub,2013-06-19 22:44:00,
2013-06-19 17:46:00,91.9,64.9,-100.00,East,90,2.0,4.0,41,0.00,,,0.00,meteohub,2013-06-19 22:46:00,
2013-06-19 17:49:00,92.1,64.9,-100.00,NE,45,0.0,4.0,41,0.00,,,0.00,meteohub,2013-06-19 22:49:00,
2013-06-19 17:51:00,92.1,65.7,-100.00,West,270,0.0,3.0,42,0.00,,,0.00,meteohub,2013-06-19 22:51:00,
2013-06-19 17:53:00,92.1,65.7,-100.00,SE,135,2.0,3.0,42,0.00,,,0.00,meteohub,2013-06-19 22:53:00,
2013-06-19 17:55:00,92.1,66.4,-100.00,NE,45,1.0,3.0,43,0.00,,,0.00,meteohub,2013-06-19 22:55:00,
2013-06-19 17:59:00,92.1,66.4,-100.00,ESE,113,2.0,3.0,43,0.00,,,0.00,meteohub,2013-06-19 22:59:00,
2013-06-19 18:02:00,91.9,66.2,-100.00,SE,135,2.0,3.0,43,0.00,,,0.00,meteohub,2013-06-19 23:02:00,
2013-06-19 18:05:00,91.6,65.3,-100.00,ENE,68,2.0,3.0,42,0.00,,,0.00,meteohub,2013-06-19 23:05:00,
2013-06-19 18:09:00,91.4,65.1,-100.00,ENE,68,2.0,2.0,42,0.00,,,0.00,meteohub,2013-06-19 23:09:00,
2013-06-19 18:13:00,91.2,64.9,-100.00,ENE,68,2.0,2.0,42,0.00,,,0.00,meteohub,2013-06-19 23:13:00,
2013-06-19 18:15:00,91.2,65.7,-100.00,South,180,0.0,2.0,43,0.00,,,0.00,meteohub,2013-06-19 23:15:00,
2013-06-19 18:17:00,91.0,64.8,-100.00,SSW,203,3.0,3.0,42,0.00,,,0.00,meteohub,2013-06-19 23:17:00,
2013-06-19 18:23:00,91.0,64.8,-100.00,East,90,8.0,8.0,42,0.00,,,0.00,meteohub,2013-06-19 23:23:00,
2013-06-19 18:25:00,90.7,64.4,-100.00,SSE,158,1.0,3.0,42,0.00,,,0.00,meteohub,2013-06-19 23:25:00,
2013-06-19 18:29:00,90.5,64.2,-100.00,SE,135,2.0,8.0,42,0.00,,,0.00,meteohub,2013-06-19 23:29:00,
2013-06-19 18:32:00,90.3,64.8,-100.00,NE,45,6.0,8.0,43,0.00,,,0.00,meteohub,2013-06-19 23:32:00,
2013-06-19 18:33:00,90.1,64.6,-100.00,ESE,113,2.0,8.0,43,0.00,,,0.00,meteohub,2013-06-19 23:33:00,
2013-06-19 18:39:00,90.1,64.6,-100.00,East,90,3.0,8.0,43,0.00,,,0.00,meteohub,2013-06-19 23:39:00,
2013-06-19 18:41:00,90.1,64.6,-100.00,East,90,4.0,6.0,43,0.00,,,0.00,meteohub,2013-06-19 23:41:00,
2013-06-19 18:45:00,90.0,64.4,-100.00,ESE,113,4.0,6.0,43,0.00,,,0.00,meteohub,2013-06-19 23:45:00,
2013-06-19 18:47:00,90.0,64.4,-100.00,South,180,0.0,6.0,43,0.00,,,0.00,meteohub,2013-06-19 23:47:00,
2013-06-19 18:49:00,90.0,64.4,-100.00,SE,135,3.0,6.0,43,0.00,,,0.00,meteohub,2013-06-19 23:49:00,
2013-06-19 18:53:00,89.8,64.2,-100.00,SW,225,2.0,4.0,43,0.00,,,0.00,meteohub,2013-06-19 23:53:00,
2013-06-19 18:55:00,89.8,64.2,-100.00,SSW,203,4.0,4.0,43,0.00,,,0.00,meteohub,2013-06-19 23:55:00,
2013-06-19 18:57:00,89.6,64.8,-100.00,South,180,1.0,4.0,44,0.00,,,0.00,meteohub,2013-06-19 23:57:00,
2013-06-19 19:01:00,89.4,64.6,-100.00,ENE,68,2.0,4.0,44,0.00,,,0.00,meteohub,2013-06-20 00:01:00,
2013-06-19 19:02:00,89.4,64.6,-100.00,ENE,68,2.0,4.0,44,0.00,,,0.00,meteohub,2013-06-20 00:02:00,
2013-06-19 19:03:00,89.2,64.4,-100.00,SSE,158,0.0,4.0,44,0.00,,,0.00,meteohub,2013-06-20 00:03:00,
2013-06-19 19:05:00,89.2,65.1,-100.00,SSW,203,1.0,4.0,45,0.00,,,0.00,meteohub,2013-06-20 00:05:00,
2013-06-19 19:07:00,89.2,65.1,-100.00,ESE,113,4.0,4.0,45,0.00,,,0.00,meteohub,2013-06-20 00:07:00,
2013-06-19 19:11:00,89.2,65.1,-100.00,East,90,0.0,4.0,45,0.00,,,0.00,meteohub,2013-06-20 00:11:00,
2013-06-19 19:13:00,88.9,64.8,-100.00,ENE,68,6.0,6.0,45,0.00,,,0.00,meteohub,2013-06-20 00:13:00,
2013-06-19 19:15:00,88.9,64.8,-100.00,ESE,113,0.0,6.0,45,0.00,,,0.00,meteohub,2013-06-20 00:15:00,
2013-06-19 19:19:00,88.9,64.8,-100.00,SE,135,1.0,6.0,45,0.00,,,0.00,meteohub,2013-06-20 00:19:00,
2013-06-19 19:21:00,88.7,65.3,-100.00,SE,135,0.0,6.0,46,0.00,,,0.00,meteohub,2013-06-20 00:21:00,
2013-06-19 19:23:00,88.7,65.3,-100.00,SSW,203,0.0,6.0,46,0.00,,,0.00,meteohub,2013-06-20 00:23:00,
2013-06-19 19:25:00,88.7,65.3,-100.00,SSW,203,0.0,6.0,46,0.00,,,0.00,meteohub,2013-06-20 00:25:00,
2013-06-19 19:27:00,88.5,65.1,-100.00,SE,135,0.0,6.0,46,0.00,,,0.00,meteohub,2013-06-20 00:27:00,
2013-06-19 19:29:00,88.5,65.1,-100.00,ESE,113,2.0,6.0,46,0.00,,,0.00,meteohub,2013-06-20 00:29:00,
2013-06-19 19:32:00,88.5,65.1,-100.00,South,180,0.0,1.0,46,0.00,,,0.00,meteohub,2013-06-20 00:32:00,
2013-06-19 19:35:00,88.3,65.5,-100.00,SW,225,5.0,5.0,47,0.00,,,0.00,meteohub,2013-06-20 00:35:00,
2013-06-19 19:37:00,88.3,65.5,-100.00,SE,135,0.0,2.0,47,0.00,,,0.00,meteohub,2013-06-20 00:37:00,
2013-06-19 19:41:00,88.2,65.3,-100.00,SSW,203,3.0,5.0,47,0.00,,,0.00,meteohub,2013-06-20 00:41:00,
2013-06-19 19:43:00,88.2,65.3,-100.00,SSW,203,3.0,5.0,47,0.00,,,0.00,meteohub,2013-06-20 00:43:00,
2013-06-19 19:45:00,88.0,65.8,-100.00,SE,135,0.0,5.0,48,0.00,,,0.00,meteohub,2013-06-20 00:45:00,
2013-06-19 19:47:00,88.0,65.8,-100.00,SSE,158,0.0,5.0,48,0.00,,,0.00,meteohub,2013-06-20 00:47:00,
2013-06-19 19:49:00,88.0,65.8,-100.00,SW,225,0.0,5.0,48,0.00,,,0.00,meteohub,2013-06-20 00:49:00,
2013-06-19 19:51:00,87.8,65.7,-100.00,SSW,203,3.0,5.0,48,0.00,,,0.00,meteohub,2013-06-20 00:51:00,
2013-06-19 19:53:00,87.8,65.7,-100.00,ESE,113,1.0,5.0,48,0.00,,,0.00,meteohub,2013-06-20 00:53:00,
2013-06-19 19:55:00,87.6,65.5,-100.00,East,90,4.0,4.0,48,0.00,,,0.00,meteohub,2013-06-20 00:55:00,
2013-06-19 19:57:00,87.6,65.5,-100.00,SW,225,2.0,4.0,48,0.00,,,0.00,meteohub,2013-06-20 00:57:00,
2013-06-19 19:59:00,87.6,65.5,-100.00,WSW,248,0.0,4.0,48,0.00,,,0.00,meteohub,2013-06-20 00:59:00,
2013-06-19 20:01:00,87.4,65.3,-100.00,ESE,113,3.0,4.0,48,0.00,,,0.00,meteohub,2013-06-20 01:01:00,
2013-06-19 20:07:00,87.3,65.8,-100.00,ESE,113,2.0,4.0,49,0.00,,,0.00,meteohub,2013-06-20 01:07:00,
2013-06-19 20:13:00,86.9,65.5,-100.00,SW,225,0.0,4.0,49,0.00,,,0.00,meteohub,2013-06-20 01:13:00,
2013-06-19 20:17:00,86.9,65.5,-100.00,NW,315,0.0,4.0,49,0.00,,,0.00,meteohub,2013-06-20 01:17:00,
2013-06-19 20:19:00,86.9,65.5,-100.00,NW,315,0.0,4.0,49,0.00,,,0.00,meteohub,2013-06-20 01:19:00,
2013-06-19 20:21:00,86.7,65.3,-100.00,SE,135,0.0,4.0,49,0.00,,,0.00,meteohub,2013-06-20 01:21:00,
2013-06-19 20:23:00,86.7,65.3,-100.00,East,90,2.0,4.0,49,0.00,,,0.00,meteohub,2013-06-20 01:23:00,
2013-06-19 20:25:00,86.7,65.3,-100.00,ENE,68,0.0,4.0,49,0.00,,,0.00,meteohub,2013-06-20 01:25:00,
2013-06-19 20:29:00,86.4,64.9,-100.00,East,90,0.0,4.0,49,0.00,,,0.00,meteohub,2013-06-20 01:29:00,
2013-06-19 20:33:00,86.4,64.9,-100.00,West,270,0.0,2.0,49,0.00,,,0.00,meteohub,2013-06-20 01:33:00,
2013-06-19 20:35:00,86.2,64.8,-100.00,SE,135,0.0,2.0,49,0.00,,,0.00,meteohub,2013-06-20 01:35:00,
2013-06-19 20:37:00,86.2,65.3,-100.00,ENE,68,4.0,4.0,50,0.00,,,0.00,meteohub,2013-06-20 01:37:00,
2013-06-19 20:41:00,85.8,64.9,-100.00,South,180,0.0,4.0,50,0.00,,,0.00,meteohub,2013-06-20 01:41:00,
2013-06-19 20:43:00,85.8,64.9,-100.00,SSE,158,1.0,4.0,50,0.00,,,0.00,meteohub,2013-06-20 01:43:00,
2013-06-19 20:45:00,85.8,64.9,-100.00,East,90,4.0,4.0,50,0.00,,,0.00,meteohub,2013-06-20 01:45:00,
2013-06-19 20:47:00,85.8,64.9,-100.00,East,90,4.0,4.0,50,0.00,,,0.00,meteohub,2013-06-20 01:47:00,
2013-06-19 20:52:00,85.6,64.9,-100.00,SE,135,2.0,4.0,50,0.00,,,0.00,meteohub,2013-06-20 01:52:00,
2013-06-19 20:54:00,85.6,64.9,-100.00,SE,135,0.0,4.0,50,0.00,,,0.00,meteohub,2013-06-20 01:54:00,
2013-06-19 21:00:00,85.3,64.6,-100.00,East,90,2.0,4.0,50,0.00,,,0.00,meteohub,2013-06-20 02:00:00,
2013-06-19 21:02:00,85.3,64.6,-100.00,SE,135,0.0,4.0,50,0.00,,,0.00,meteohub,2013-06-20 02:02:00,
2013-06-19 21:06:00,84.9,64.2,-100.00,East,90,2.0,2.0,50,0.00,,,0.00,meteohub,2013-06-20 02:06:00,
2013-06-19 21:08:00,84.9,64.2,-100.00,East,90,2.0,2.0,50,0.00,,,0.00,meteohub,2013-06-20 02:08:00,
2013-06-19 21:10:00,84.7,64.0,-100.00,East,90,0.0,2.0,50,0.00,,,0.00,meteohub,2013-06-20 02:10:00,
2013-06-19 21:14:00,84.7,64.0,-100.00,NNE,23,0.0,2.0,50,0.00,,,0.00,meteohub,2013-06-20 02:14:00,
2013-06-19 21:16:00,84.6,64.4,-100.00,SSW,203,0.0,2.0,51,0.00,,,0.00,meteohub,2013-06-20 02:16:00,
2013-06-19 21:17:00,84.6,64.4,-100.00,SSW,203,0.0,2.0,51,0.00,,,0.00,meteohub,2013-06-20 02:17:00,
2013-06-19 21:20:00,84.4,64.2,-100.00,ESE,113,0.0,2.0,51,0.00,,,0.00,meteohub,2013-06-20 02:20:00,
2013-06-19 21:22:00,84.4,64.2,-100.00,ESE,113,0.0,2.0,51,0.00,,,0.00,meteohub,2013-06-20 02:22:00,
2013-06-19 21:24:00,84.2,64.0,-100.00,East,90,1.0,2.0,51,0.00,,,0.00,meteohub,2013-06-20 02:24:00,
2013-06-19 21:26:00,84.0,63.9,-100.00,East,90,0.0,1.0,51,0.00,,,0.00,meteohub,2013-06-20 02:26:00,
2013-06-19 21:28:00,84.0,63.9,-100.00,East,90,0.0,1.0,51,0.00,,,0.00,meteohub,2013-06-20 02:28:00,
2013-06-19 21:30:00,83.8,63.9,-100.00,ESE,113,0.0,1.0,51,0.00,,,0.00,meteohub,2013-06-20 02:30:00,
2013-06-19 21:32:00,83.8,63.9,-100.00,NNE,23,0.0,1.0,51,0.00,,,0.00,meteohub,2013-06-20 02:32:00,
2013-06-19 21:34:00,83.7,64.2,-100.00,NNE,23,0.0,1.0,52,0.00,,,0.00,meteohub,2013-06-20 02:34:00,
2013-06-19 21:36:00,83.5,64.0,-100.00,NNE,23,0.0,1.0,52,0.00,,,0.00,meteohub,2013-06-20 02:36:00,
2013-06-19 21:38:00,83.5,64.0,-100.00,NNE,23,0.0,1.0,52,0.00,,,0.00,meteohub,2013-06-20 02:38:00,
2013-06-19 21:40:00,83.3,63.9,-100.00,NNE,23,0.0,0.0,52,0.00,,,0.00,meteohub,2013-06-20 02:40:00,
2013-06-19 21:44:00,83.1,64.2,-100.00,NNE,23,0.0,0.0,53,0.00,,,0.00,meteohub,2013-06-20 02:44:00,
2013-06-19 21:46:00,82.9,64.0,-100.00,NNE,23,0.0,0.0,53,0.00,,,0.00,meteohub,2013-06-20 02:46:00,
2013-06-19 21:47:00,82.9,64.0,-100.00,NNE,23,0.0,0.0,53,0.00,,,0.00,meteohub,2013-06-20 02:47:00,
2013-06-19 21:52:00,82.6,63.7,-100.00,NNE,23,0.0,0.0,53,0.00,,,0.00,meteohub,2013-06-20 02:52:00,
2013-06-19 21:54:00,82.2,63.9,-100.00,NNE,23,0.0,0.0,54,0.00,,,0.00,meteohub,2013-06-20 02:54:00,
2013-06-19 21:56:00,82.2,63.9,-100.00,NNE,23,0.0,0.0,54,0.00,,,0.00,meteohub,2013-06-20 02:56:00,
2013-06-19 21:58:00,82.2,63.9,-100.00,NNE,23,0.0,0.0,54,0.00,,,0.00,meteohub,2013-06-20 02:58:00,
2013-06-19 22:02:00,82.0,63.7,-100.00,NNE,23,0.0,0.0,54,0.00,,,0.00,meteohub,2013-06-20 03:02:00,
2013-06-19 22:08:00,81.5,63.9,-100.00,NNE,23,0.0,0.0,55,0.00,,,0.00,meteohub,2013-06-20 03:08:00,
2013-06-19 22:10:00,81.3,63.7,-100.00,NNE,23,0.0,0.0,55,0.00,,,0.00,meteohub,2013-06-20 03:10:00,
2013-06-19 22:16:00,81.0,63.3,-100.00,NNE,23,0.0,0.0,55,0.00,,,0.00,meteohub,2013-06-20 03:16:00,
2013-06-19 22:17:00,81.0,63.3,-100.00,NNE,23,0.0,0.0,55,0.00,,,0.00,meteohub,2013-06-20 03:17:00,
2013-06-19 22:18:00,81.0,63.9,-100.00,NNE,23,0.0,0.0,56,0.00,,,0.00,meteohub,2013-06-20 03:18:00,
2013-06-19 22:22:00,80.8,63.7,-100.00,NNE,23,0.0,0.0,56,0.00,,,0.00,meteohub,2013-06-20 03:22:00,
2013-06-19 22:24:00,80.6,63.5,-100.00,NNE,23,0.0,0.0,56,0.00,,,0.00,meteohub,2013-06-20 03:24:00,
2013-06-19 22:30:00,80.4,63.9,-100.00,NNE,23,0.0,0.0,57,0.00,,,0.00,meteohub,2013-06-20 03:30:00,
2013-06-19 22:32:00,80.4,63.9,-100.00,NNE,23,0.0,0.0,57,0.00,,,0.00,meteohub,2013-06-20 03:32:00,
2013-06-19 22:34:00,80.2,63.7,-100.00,NNE,23,0.0,0.0,57,0.00,,,0.00,meteohub,2013-06-20 03:34:00,
2013-06-19 22:36:00,80.2,63.7,-100.00,NNE,23,0.0,0.0,57,0.00,,,0.00,meteohub,2013-06-20 03:36:00,
2013-06-19 22:38:00,80.2,63.7,-100.00,NNE,23,0.0,0.0,57,0.00,,,0.00,meteohub,2013-06-20 03:38:00,
2013-06-19 22:42:00,79.9,63.3,-100.00,NNE,23,0.0,0.0,57,0.00,,,0.00,meteohub,2013-06-20 03:42:00,
2013-06-19 22:48:00,79.9,63.3,-100.00,NNE,23,0.0,0.0,57,0.00,,,0.00,meteohub,2013-06-20 03:48:00,
2013-06-19 22:50:00,79.7,63.1,-100.00,ENE,68,0.0,0.0,57,0.00,,,0.00,meteohub,2013-06-20 03:50:00,
2013-06-19 22:52:00,79.5,63.0,-100.00,ESE,113,0.0,0.0,57,0.00,,,0.00,meteohub,2013-06-20 03:52:00,
2013-06-19 22:54:00,79.5,63.0,-100.00,SSE,158,0.0,0.0,57,0.00,,,0.00,meteohub,2013-06-20 03:54:00,
2013-06-19 22:56:00,79.5,63.0,-100.00,SSE,158,0.0,0.0,57,0.00,,,0.00,meteohub,2013-06-20 03:56:00,
2013-06-19 22:58:00,79.5,63.0,-100.00,ESE,113,0.0,0.0,57,0.00,,,0.00,meteohub,2013-06-20 03:58:00,
2013-06-19 23:00:00,79.5,63.0,-100.00,ESE,113,0.0,0.0,57,0.00,,,0.00,meteohub,2013-06-20 04:00:00,
2013-06-19 23:02:00,79.5,63.0,-100.00,SSW,203,2.0,0.0,57,0.00,,,0.00,meteohub,2013-06-20 04:02:00,
2013-06-19 23:04:00,79.5,63.0,-100.00,South,180,0.0,0.0,57,0.00,,,0.00,meteohub,2013-06-20 04:04:00,
2013-06-19 23:06:00,79.5,63.0,-100.00,SW,225,4.0,4.0,57,0.00,,,0.00,meteohub,2013-06-20 04:06:00,
2013-06-19 23:10:00,79.5,63.5,-100.00,SSW,203,0.0,4.0,58,0.00,,,0.00,meteohub,2013-06-20 04:10:00,
2013-06-19 23:14:00,79.7,64.0,-100.00,SSW,203,0.0,4.0,59,0.00,,,0.00,meteohub,2013-06-20 04:14:00,
2013-06-19 23:16:00,79.5,63.9,-100.00,SSE,158,0.0,4.0,59,0.00,,,0.00,meteohub,2013-06-20 04:16:00,
2013-06-19 23:17:00,79.5,63.9,-100.00,SSE,158,0.0,4.0,59,0.00,,,0.00,meteohub,2013-06-20 04:17:00,
2013-06-19 23:22:00,79.7,64.6,-100.00,ESE,113,0.0,4.0,60,0.00,,,0.00,meteohub,2013-06-20 04:22:00,
2013-06-19 23:24:00,79.7,64.6,-100.00,SSW,203,0.0,4.0,60,0.00,,,0.00,meteohub,2013-06-20 04:24:00,
2013-06-19 23:26:00,79.7,64.6,-100.00,SSW,203,1.0,0.0,60,0.00,,,0.00,meteohub,2013-06-20 04:26:00,
2013-06-19 23:28:00,79.7,65.1,-100.00,SE,135,1.0,0.0,61,0.00,,,0.00,meteohub,2013-06-20 04:28:00,
2013-06-19 23:30:00,79.9,65.3,-100.00,WSW,248,4.0,4.0,61,0.00,,,0.00,meteohub,2013-06-20 04:30:00,
2013-06-19 23:32:00,79.9,65.3,-100.00,WSW,248,4.0,4.0,61,0.00,,,0.00,meteohub,2013-06-20 04:32:00,
2013-06-19 23:34:00,79.9,65.7,-100.00,South,180,3.0,3.0,62,0.00,,,0.00,meteohub,2013-06-20 04:34:00,
2013-06-19 23:36:00,79.9,65.7,-100.00,South,180,3.0,4.0,62,0.00,,,0.00,meteohub,2013-06-20 04:36:00,
2013-06-19 23:38:00,79.9,65.7,-100.00,West,270,2.0,4.0,62,0.00,,,0.00,meteohub,2013-06-20 04:38:00,
2013-06-19 23:41:00,79.9,65.7,-100.00,ESE,113,2.0,4.0,62,0.00,,,0.00,meteohub,2013-06-20 04:41:00,
2013-06-19 23:45:00,79.9,66.2,-100.00,South,180,3.0,4.0,63,0.00,,,0.00,meteohub,2013-06-20 04:45:00,
2013-06-19 23:47:00,79.9,66.2,-100.00,SSW,203,2.0,4.0,63,0.00,,,0.00,meteohub,2013-06-20 04:47:00,
2013-06-19 23:51:00,79.9,66.2,-100.00,South,180,3.0,3.0,63,0.00,,,0.00,meteohub,2013-06-20 04:51:00,
2013-06-19 23:53:00,79.7,66.4,-100.00,SSW,203,0.0,3.0,64,0.00,,,0.00,meteohub,2013-06-20 04:53:00,
2013-06-19 23:55:00,79.7,66.4,-100.00,SSW,203,12.0,12.0,64,0.00,,,0.00,meteohub,2013-06-20 04:55:00,
2013-06-19 23:57:00,79.7,66.4,-100.00,South,180,0.0,3.0,64,0.00,,,0.00,meteohub,2013-06-20 04:57:00,